5B4ALR-13 Weather Reports


time (UTC)temp
C
wind
direction
speed
KPH
gust
KPH
rain 1hr
cm
rain 24hr
cm
rain mn
cm
humidity
%
barometer
mb
20260508141109 27 270 1.6 1.6 0.00 0.00 0.00 39 1017.3
20260508140109 27 135 1.6 3.2 0.00 0.00 0.00 40 1017.2
20260508135109 26 180 1.6 3.2 0.00 0.00 0.00 40 1017.2
20260508134109 27 180 1.6 1.6 0.00 0.00 0.00 40 1017.2
20260508133109 27 112 1.6 1.6 0.00 0.00 0.00 41 1017.2
20260508132109 27 90 0.0 0.0 0.00 0.00 0.00 40 1017.2
20260508131109 27 225 1.6 1.6 0.00 0.00 0.00 41 1017.2
20260508130109 27 225 1.6 1.6 0.00 0.00 0.00 42 1017.4
20260508125109 26 180 0.0 0.0 0.00 0.00 0.00 42 1017.3
20260508124109 26 270 1.6 1.6 0.00 0.00 0.00 44 1017.3
20260508123109 26 90 1.6 3.2 0.00 0.00 0.00 46 1017.3
20260508122109 26 90 1.6 1.6 0.00 0.00 0.00 44 1017.5
20260508121109 26 67 1.6 1.6 0.00 0.00 0.00 41 1017.5
20260508120109 27 90 1.6 3.2 0.00 0.00 0.00 40 1017.6
20260508115109 27 67 0.0 1.6 0.00 0.00 0.00 41 1017.7
20260508114109 26 90 4.8 4.8 0.00 0.00 0.00 42 1017.8
20260508113109 26 90 3.2 3.2 0.00 0.00 0.00 43 1017.8
20260508112109 27 45 1.6 3.2 0.00 0.00 0.00 45 1017.9
20260508111109 27 90 1.6 1.6 0.00 0.00 0.00 40 1017.8
20260508110109 27 45 1.6 3.2 0.00 0.00 0.00 41 1017.9
20260508105109 27 90 1.6 1.6 0.00 0.00 0.00 39 1018.0
20260508104109 28 45 3.2 3.2 0.00 0.00 0.00 38 1018.0
20260508103109 28 90 1.6 1.6 0.00 0.00 0.00 38 1018.0
20260508102109 27 112 0.0 1.6 0.00 0.00 0.00 38 1018.0
20260508101109 27 90 1.6 1.6 0.00 0.00 0.00 36 1018.2
20260508100109 27 90 1.6 1.6 0.00 0.00 0.00 36 1018.3
20260508095109 27 45 0.0 0.0 0.00 0.00 0.00 34 1018.3
20260508094109 27 90 3.2 6.4 0.00 0.00 0.00 33 1018.4
20260508093109 27 67 1.6 4.8 0.00 0.00 0.00 32 1018.5
20260508092109 27 90 3.2 3.2 0.00 0.00 0.00 34 1018.6
20260508091109 28 67 1.6 1.6 0.00 0.00 0.00 33 1018.7
20260508090109 28 135 1.6 1.6 0.00 0.00 0.00 30 1018.7
20260508085109 28 0 1.6 4.8 0.00 0.00 0.00 31 1018.8
20260508084109 28 90 1.6 1.6 0.00 0.00 0.00 30 1019.0
20260508083109 28 315 1.6 1.6 0.00 0.00 0.00 30 1018.9
20260508082109 27 45 1.6 1.6 0.00 0.00 0.00 29 1018.9
20260508081109 27 0 1.6 1.6 0.00 0.00 0.00 31 1018.9
20260508080109 27 45 3.2 3.2 0.00 0.00 0.00 29 1018.9
20260508075109 27 45 1.6 1.6 0.00 0.00 0.00 29 1019.0
20260508074109 27 112 3.2 8.0 0.00 0.00 0.00 30 1019.0
20260508073109 27 90 1.6 3.2 0.00 0.00 0.00 29 1019.1
20260508072109 27 45 4.8 9.7 0.00 0.00 0.00 29 1019.1
20260508071109 27 45 1.6 4.8 0.00 0.00 0.00 30 1019.1
20260508070109 27 45 1.6 3.2 0.00 0.00 0.00 29 1019.0
20260508065109 27 45 3.2 3.2 0.00 0.00 0.00 28 1019.1
20260508064108 28 22 0.0 0.0 0.00 0.00 0.00 27 1019.1
20260508063108 28 270 0.0 0.0 0.00 0.00 0.00 27 1019.2
20260508062108 27 22 1.6 1.6 0.00 0.00 0.00 27 1019.2
20260508061108 27 0 0.0 0.0 0.00 0.00 0.00 28 1019.2
20260508060108 27 0 0.0 0.0 0.00 0.00 0.00 29 1019.3
20260508055109 27 270 0.0 0.0 0.00 0.00 0.00 30 1019.2
20260508054108 26 0 0.0 0.0 0.00 0.00 0.00 32 1019.2
20260508053108 26 45 0.0 0.0 0.00 0.00 0.00 32 1019.0
20260508052108 26 315 0.0 0.0 0.00 0.00 0.00 33 1019.1
20260508051108 25 157 0.0 0.0 0.00 0.00 0.00 33 1019.0
20260508050108 26 315 0.0 0.0 0.00 0.00 0.00 33 1019.0
20260508045108 26 270 0.0 0.0 0.00 0.00 0.00 35 1019.0
20260508044108 25 315 0.0 0.0 0.00 0.00 0.00 35 1019.1
20260508043108 24 315 0.0 0.0 0.00 0.00 0.00 37 1019.1
20260508042108 23 45 0.0 0.0 0.00 0.00 0.00 39 1019.1
20260508041108 22 22 0.0 0.0 0.00 0.00 0.00 40 1019.0
20260508040108 22 45 0.0 0.0 0.00 0.00 0.00 41 1018.9
20260508035108 21 315 0.0 0.0 0.00 0.00 0.00 42 1018.7
20260508034108 20 0 0.0 0.0 0.00 0.00 0.00 44 1018.7
20260508033108 18 315 0.0 0.0 0.00 0.00 0.00 46 1018.5
20260508032108 18 315 0.0 1.6 0.00 0.00 0.00 46 1018.4
20260508031108 17 0 0.0 0.0 0.00 0.00 0.00 46 1018.3
20260508030108 17 0 0.0 0.0 0.00 0.00 0.00 46 1018.1
20260508025108 17 45 0.0 0.0 0.00 0.00 0.00 46 1018.0
20260508024108 17 315 0.0 0.0 0.00 0.00 0.00 45 1017.9
20260508023108 18 45 0.0 0.0 0.00 0.00 0.00 45 1017.9
20260508022108 18 315 0.0 0.0 0.00 0.00 0.00 45 1017.7
20260508021108 18 0 0.0 0.0 0.00 0.00 0.00 45 1017.6
20260508020108 18 315 1.6 1.6 0.00 0.00 0.00 45 1017.7
20260508015108 18 292 0.0 1.6 0.00 0.00 0.00 44 1017.7
20260508014109 18 270 1.6 1.6 0.00 0.00 0.00 45 1017.7
20260508013108 18 315 0.0 0.0 0.00 0.00 0.00 45 1017.7
20260508012110 18 270 0.0 0.0 0.00 0.00 0.00 46 1017.7
20260508011108 18 270 0.0 0.0 0.00 0.00 0.00 47 1017.7
20260508010109 18 0 0.0 0.0 0.00 0.00 0.00 47 1017.7
20260508005108 18 315 0.0 0.0 0.00 0.00 0.00 47 1017.7
20260508004108 17 0 0.0 0.0 0.00 0.00 0.00 48 1017.7
20260508003109 17 45 0.0 0.0 0.00 0.00 0.00 48 1017.7
20260508002108 17 292 1.6 1.6 0.00 0.00 0.00 48 1017.8
20260508001109 17 315 3.2 3.2 0.00 0.00 0.00 47 1017.9
20260508000108 17 0 1.6 1.6 0.00 0.00 0.00 47 1018.1
20260507235108 18 315 1.6 1.6 0.00 0.00 0.00 47 1018.1
20260507234108 18 0 1.6 1.6 0.00 0.00 0.00 47 1018.0
20260507233108 18 0 1.6 4.8 0.00 0.00 0.00 48 1018.1
20260507232108 17 270 0.0 0.0 0.00 0.00 0.00 51 1018.2
20260507231108 17 0 0.0 1.6 0.00 0.00 0.00 56 1018.3
20260507230108 17 0 0.0 0.0 0.00 0.00 0.00 59 1018.3
20260507225108 17 270 0.0 0.0 0.00 0.00 0.00 61 1018.2
20260507224108 17 225 0.0 0.0 0.00 0.00 0.00 62 1018.3
20260507223108 17 45 1.6 3.2 0.00 0.00 0.00 63 1018.4
20260507222108 17 270 0.0 0.0 0.00 0.00 0.00 65 1018.5
20260507221108 17 45 0.0 1.6 0.00 0.00 0.00 67 1018.6
20260507220109 17 225 1.6 1.6 0.00 0.00 0.00 68 1018.8
20260507215108 17 270 0.0 0.0 0.00 0.00 0.00 69 1018.9
20260507214109 18 315 0.0 0.0 0.00 0.00 0.00 69 1019.1
20260507213110 18 225 3.2 3.2 0.00 0.00 0.00 70 1019.1
20260507212110 18 315 0.0 0.0 0.00 0.00 0.00 70 1019.1
20260507211109 18 315 0.0 1.6 0.00 0.00 0.00 70 1019.1
20260507210109 18 315 1.6 1.6 0.00 0.00 0.00 70 1019.2
20260507205111 18 315 0.0 0.0 0.00 0.00 0.00 69 1019.2
20260507204108 18 315 3.2 3.2 0.00 0.00 0.00 69 1019.2
20260507203109 18 270 0.0 0.0 0.00 0.00 0.00 68 1019.2
20260507202110 18 270 1.6 1.6 0.00 0.00 0.00 68 1019.3
20260507201108 18 315 3.2 3.2 0.00 0.00 0.00 67 1019.3
20260507200108 18 270 0.0 1.6 0.00 0.00 0.00 67 1019.3
20260507195109 18 0 0.0 0.0 0.00 0.00 0.00 66 1019.2
20260507194108 18 270 0.0 0.0 0.00 0.00 0.00 66 1019.2
20260507193108 18 315 1.6 1.6 0.00 0.00 0.00 66 1019.2
20260507192109 18 0 0.0 0.0 0.00 0.00 0.00 65 1019.1
20260507191109 18 270 1.6 1.6 0.00 0.00 0.00 65 1019.1
20260507190113 18 315 0.0 0.0 0.00 0.00 0.00 64 1019.0
20260507185112 19 315 0.0 0.0 0.00 0.00 0.00 63 1018.9
20260507184108 19 0 1.6 1.6 0.00 0.00 0.00 63 1018.8
20260507183109 19 315 0.0 0.0 0.00 0.00 0.00 62 1018.8
20260507182111 20 315 0.0 0.0 0.00 0.00 0.00 60 1018.8
20260507181109 20 337 0.0 0.0 0.00 0.00 0.00 60 1018.8
20260507180109 20 270 0.0 0.0 0.00 0.00 0.00 60 1018.8
20260507175108 20 0 0.0 0.0 0.00 0.00 0.00 61 1018.7
20260507174108 20 0 0.0 0.0 0.00 0.00 0.00 63 1018.6
20260507173108 20 0 0.0 0.0 0.00 0.00 0.00 63 1018.4
20260507172108 21 270 0.0 0.0 0.00 0.00 0.00 61 1018.4
20260507171108 20 270 0.0 0.0 0.00 0.00 0.00 60 1018.3
20260507170108 21 180 0.0 0.0 0.00 0.00 0.00 60 1018.4
20260507165108 21 270 0.0 0.0 0.00 0.00 0.00 59 1018.2
20260507164108 21 157 1.6 1.6 0.00 0.00 0.00 57 1018.2
20260507163108 22 180 0.0 1.6 0.00 0.00 0.00 54 1018.1
20260507162109 22 225 0.0 0.0 0.00 0.00 0.00 49 1018.0
20260507161108 23 180 0.0 0.0 0.00 0.00 0.00 48 1018.0
20260507160110 23 225 0.0 0.0 0.00 0.00 0.00 47 1017.9
20260507155108 23 270 0.0 0.0 0.00 0.00 0.00 47 1017.9
20260507154108 23 180 0.0 0.0 0.00 0.00 0.00 46 1017.9
20260507153108 23 180 0.0 0.0 0.00 0.00 0.00 48 1018.0
20260507152108 23 202 1.6 8.0 0.00 0.00 0.00 48 1018.0
20260507151108 23 225 1.6 1.6 0.00 0.00 0.00 48 1018.0
20260507150108 24 270 0.0 0.0 0.00 0.00 0.00 46 1018.0
20260507145108 23 135 0.0 0.0 0.00 0.00 0.00 47 1018.0
20260507144109 23 90 0.0 0.0 0.00 0.00 0.00 48 1018.1
20260507143108 23 270 0.0 0.0 0.00 0.00 0.00 47 1018.1
20260507142108 23 135 0.0 0.0 0.00 0.00 0.00 47 1018.2